Weather History for Jacksonville, FL

Change the Weather History Date:

Sunday, March 24, 2013

  Actual Average Record
Temperature  
Mean Temperature 73 °F 63 °F  
Max Temperature 85 °F 75 °F 91 °F (1907)
Min Temperature 61 °F 51 °F 35 °F (1968)
Degree Days  
Heating Degree Days 0 4  
Month to date heating degree days 230 132  
Since 1 July heating degree days 1123 1265  
Cooling Degree Days 8 2  
Month to date cooling degree days 15 40  
Year to date cooling degree days 91 69  
Growing Degree Days 20 (Base 50)    
Moisture  
Dew Point 65 °F    
Average Humidity 74    
Maximum Humidity 100    
Minimum Humidity 48    
Precipitation  
Precipitation 0.46 in 0.11 in 3.31 in (1901)
Month to date precipitation 3.07 3.10  
Year to date precipitation 8.79 9.59  
Snow  
Snow 0.00 in 0.00 in 0.00 in (2002)
Month to date snowfall 0.0 0.0  
Since 1 July snowfall 0.0 T  
Snow Depth 0.00 in    
Sea Level Pressure  
Sea Level Pressure 29.63 in    
Wind  
Wind Speed 12 mph (SSW)    
Max Wind Speed 32 mph    
Max Gust Speed 49 mph    
Visibility 8 miles    
Events Fog , Rain , Thunderstorm    
T = Trace of Precipitation, MM = Missing Value Source: NWS Daily Summary

Daily Weather History Graph

Daily Weather History Graph

Search for Another Location

Airport:

Trip Planner

Search our weather history database for the weather conditions in past years. The results will help you decide how hot, cold, wet, or windy it might be!

Date:

Astronomy

Mar. 24, 2013 Rise Set
Actual Time 7:25 AM EDT 7:40 PM EDT
Civil Twilight 7:01 AM EDT 8:04 PM EDT
Nautical Twilight 6:33 AM EDT 8:33 PM EDT
Astronomical Twilight 6:04 AM EDT 9:01 PM EDT
Moon 5:16 PM EDT (3/24) 5:24 AM EDT (3/24)
Length of Visible Light 13h 03m
Length of Day
12h 15m
Waxing Gibbous, 91% of the Moon is Illuminated
Mar 24
Waxing Gibbous
Mar 27
Full
Apr 3
Last Quarter
Apr 10
New
Apr 18
First Quarter

Hourly Weather History & Observations

Time (EDT) Temp. Heat Index Dew Point Humidity Pressure Visibility Wind Dir Wind Speed Gust Speed Precip Events Conditions
12:56 AM 61.0 °F - 60.1 °F 97% 29.79 in 6.0 mi SE 4.6 mph - 0.11 in   Overcast
1:56 AM 61.0 °F - 61.0 °F 100% 29.76 in 4.0 mi SSE 3.5 mph - 0.00 in   Overcast
2:03 AM 62.6 °F - 60.8 °F 94% 29.76 in 5.0 mi SSE 3.5 mph - N/A   Overcast
2:42 AM 62.6 °F - 62.6 °F 100% 29.75 in 10.0 mi SE 8.1 mph - N/A   Overcast
2:56 AM 63.0 °F - 62.1 °F 97% 29.74 in 10.0 mi SSE 5.8 mph - N/A   Mostly Cloudy
3:24 AM 62.6 °F - 62.6 °F 100% 29.72 in 10.0 mi SSE 9.2 mph - N/A   Mostly Cloudy
3:56 AM 64.0 °F - 62.1 °F 93% 29.71 in 10.0 mi SSE 9.2 mph - N/A   Mostly Cloudy
4:56 AM 64.0 °F - 62.1 °F 93% 29.67 in 10.0 mi SSE 10.4 mph - N/A   Mostly Cloudy
5:56 AM 64.9 °F - 63.0 °F 93% 29.65 in 10.0 mi SW 10.4 mph - N/A   Overcast
6:06 AM 64.4 °F - 62.6 °F 94% 29.65 in 10.0 mi South 15.0 mph 19.6 mph N/A   Overcast
6:56 AM 66.0 °F - 64.9 °F 96% 29.64 in 8.0 mi South 12.7 mph - N/A   Overcast
7:56 AM 66.9 °F - 66.0 °F 97% 29.63 in 4.0 mi South 10.4 mph - N/A   Overcast
8:29 AM 68.0 °F - 66.2 °F 94% 29.62 in 6.0 mi South 15.0 mph - N/A   Overcast
8:56 AM 70.0 °F - 66.9 °F 90% 29.61 in 6.0 mi South 12.7 mph - N/A   Overcast
9:26 AM 71.6 °F - 68.0 °F 88% 29.60 in 6.0 mi SSW 16.1 mph 24.2 mph N/A   Overcast
9:46 AM 71.6 °F - 68.0 °F 88% 29.61 in 6.0 mi SW 16.1 mph 24.2 mph 0.00 in Rain , Thunderstorm Light Thunderstorms and Rain
9:56 AM 71.1 °F - 68.0 °F 90% 29.61 in 6.0 mi SSW 15.0 mph 20.7 mph 0.00 in Rain , Thunderstorm Light Thunderstorms and Rain
10:23 AM 71.6 °F - 68.0 °F 88% 29.64 in 0.8 mi WSW 16.1 mph 25.3 mph 0.02 in Rain , Thunderstorm Heavy Thunderstorms and Rain
10:29 AM 71.6 °F - 69.8 °F 94% 29.69 in 0.2 mi WSW 28.8 mph 49.5 mph 0.10 in Fog , Rain , Thunderstorm Thunderstorms and Rain
10:33 AM 69.8 °F - 66.2 °F 88% 29.62 in 0.8 mi WSW 25.3 mph 49.5 mph 0.24 in Fog , Rain , Thunderstorm Heavy Thunderstorms and Rain
10:39 AM 69.8 °F - 64.4 °F 83% 29.62 in 3.0 mi WSW 15.0 mph 40.3 mph 0.38 in Rain , Thunderstorm Thunderstorms and Rain
10:51 AM 69.8 °F - 66.2 °F 88% 29.60 in 6.0 mi SSW 15.0 mph 25.3 mph 0.40 in Rain , Thunderstorm Light Thunderstorms and Rain
10:56 AM 70.0 °F - 66.0 °F 87% 29.59 in 10.0 mi SSW 13.8 mph 20.7 mph 0.40 in Rain , Thunderstorm Light Thunderstorms and Rain
11:26 AM 68.0 °F - 64.4 °F 88% 29.61 in 10.0 mi SSW 13.8 mph - 0.00 in Rain Light Rain
11:31 AM 68.0 °F - 64.4 °F 88% 29.62 in 7.0 mi SSW 13.8 mph - 0.00 in Rain , Thunderstorm Light Thunderstorms and Rain
11:56 AM 68.0 °F - 66.0 °F 93% 29.62 in 5.0 mi SW 9.2 mph - 0.04 in Rain , Thunderstorm Light Thunderstorms and Rain
12:20 PM 69.8 °F - 68.0 °F 94% 29.61 in 7.0 mi WSW 10.4 mph - 0.02 in Rain Light Rain
12:40 PM 73.4 °F - 69.8 °F 88% 29.60 in 10.0 mi WSW 11.5 mph - 0.02 in   Mostly Cloudy
12:56 PM 73.0 °F - 70.0 °F 90% 29.61 in 10.0 mi WSW 15.0 mph 23.0 mph 0.02 in   Mostly Cloudy
1:56 PM 78.1 °F - 70.0 °F 76% 29.58 in 9.0 mi WSW 17.3 mph 24.2 mph N/A   Mostly Cloudy
2:56 PM 82.0 °F 85.5 °F 69.1 °F 65% 29.55 in 9.0 mi WSW 15.0 mph 24.2 mph N/A   Clear
3:56 PM 82.9 °F 85.0 °F 66.0 °F 56% 29.53 in 10.0 mi West 15.0 mph 20.7 mph N/A   Scattered Clouds
4:56 PM 82.9 °F 84.4 °F 64.0 °F 53% 29.53 in 10.0 mi WSW 12.7 mph - N/A   Scattered Clouds
5:56 PM 84.0 °F 84.9 °F 63.0 °F 49% 29.52 in 10.0 mi WSW 16.1 mph - N/A   Partly Cloudy
6:56 PM 81.0 °F 82.2 °F 63.0 °F 54% 29.54 in 10.0 mi SW 15.0 mph - N/A   Partly Cloudy
7:56 PM 75.9 °F - 62.1 °F 62% 29.56 in 10.0 mi SW 13.8 mph - N/A   Partly Cloudy
8:56 PM 73.0 °F - 62.1 °F 68% 29.58 in 10.0 mi SW 12.7 mph - N/A   Clear
9:56 PM 71.1 °F - 61.0 °F 70% 29.60 in 10.0 mi SW 12.7 mph - N/A   Partly Cloudy
10:56 PM 69.1 °F - 60.1 °F 73% 29.60 in 10.0 mi SW 12.7 mph - N/A   Clear
11:56 PM 69.1 °F - 57.9 °F 68% 29.62 in 10.0 mi WSW 12.7 mph 23.0 mph N/A   Clear